CW1367 Weather Reports


Display with metric or nautical units.
time (UTC)temp
F
wind
direction
speed
MPH
gust
MPH
rain 1hr
in
rain 24hr
in
rain mn
in
humidity
%
barometer
mb
20260506182614 72 197 11.0 25.0 0.00 0.00 0.00 63 1004.9
20260506181831 72 250 11.0 25.0 0.00 0.00 0.00 62 1004.9
20260506181330 72 263 10.0 21.0 0.00 0.00 0.00 63 1004.9
20260506180830 72 229 10.0 19.0 0.00 0.00 0.00 63 1004.9
20260506180329 72 231 9.0 19.0 0.00 0.00 0.00 63 1005.2
20260506175831 72 196 7.0 19.0 0.00 0.00 0.00 65 1005.3
20260506175329 71 226 7.0 15.0 0.00 0.00 0.00 65 1005.3
20260506174831 71 177 7.0 15.0 0.00 0.00 0.00 65 1005.0
20260506174641 71 190 5.0 16.0 0.00 0.00 0.00 66 1005.3
20260506174352 71 157 5.0 16.0 0.00 0.00 0.00 66 1005.2
20260506173329 71 186 5.0 14.0 0.00 0.00 0.00 68 1005.5
20260506172830 70 177 6.0 14.0 0.00 0.00 0.00 67 1005.4
20260506172330 70 180 6.0 13.0 0.00 0.00 0.00 69 1005.5
20260506171830 70 192 6.0 13.0 0.00 0.00 0.00 68 1005.6
20260506171331 70 188 7.0 13.0 0.00 0.00 0.00 70 1005.5
20260506170830 70 240 9.0 16.0 0.00 0.00 0.00 69 1005.8
20260506170329 70 181 10.0 21.0 0.00 0.00 0.00 69 1006.0
20260506170109 70 218 8.0 21.0 0.00 0.00 0.00 68 1006.1
20260506165331 70 185 6.0 14.0 0.00 0.00 0.00 68 1006.3
20260506164830 70 193 7.0 15.0 0.00 0.00 0.00 69 1006.5
20260506164331 70 228 8.0 16.0 0.00 0.00 0.00 69 1006.6
20260506163830 70 190 8.0 16.0 0.00 0.00 0.00 68 1006.7
20260506163331 70 212 8.0 20.0 0.00 0.00 0.00 67 1006.6
20260506163109 70 227 8.0 20.0 0.00 0.00 0.00 65 1006.7
20260506162331 71 252 10.0 19.0 0.00 0.00 0.00 66 1006.9
20260506161831 71 182 12.0 25.0 0.00 0.00 0.00 63 1007.0
20260506161330 72 223 12.0 25.0 0.00 0.00 0.00 62 1007.1
20260506161110 72 219 9.0 21.0 0.00 0.00 0.00 61 1007.0
20260506160329 73 211 9.0 20.0 0.00 0.00 0.00 57 1007.1
20260506155830 73 168 11.0 21.0 0.00 0.00 0.00 56 1007.0
20260506155330 73 194 12.0 27.0 0.00 0.00 0.00 56 1006.9
20260506154828 74 201 12.0 27.0 0.00 0.00 0.00 56 1007.0
20260506154329 74 252 11.0 20.0 0.00 0.00 0.00 56 1007.0
20260506153828 73 221 11.0 20.0 0.00 0.00 0.00 56 1006.9
20260506153329 73 221 10.0 26.0 0.00 0.00 0.00 57 1006.9
20260506152829 73 200 10.0 26.0 0.00 0.00 0.00 56 1006.8
20260506152329 73 242 12.0 24.0 0.00 0.00 0.00 57 1006.9
20260506152114 73 238 13.0 26.0 0.00 0.00 0.00 56 1006.9
20260506151329 73 198 14.0 26.0 0.00 0.00 0.00 56 1007.1
20260506150830 73 221 15.0 27.0 0.00 0.00 0.00 55 1007.2
20260506150329 74 233 12.0 27.0 0.00 0.00 0.00 55 1007.1
20260506150113 74 203 9.0 24.0 0.00 0.00 0.00 56 1007.1
20260506145329 74 193 10.0 24.0 0.00 0.00 0.00 56 1007.0
20260506144830 74 218 9.0 20.0 0.00 0.00 0.00 56 1007.0
20260506144328 74 201 9.0 21.0 0.00 0.00 0.00 56 1007.0
20260506143829 74 198 8.0 21.0 0.00 0.00 0.00 57 1006.9
20260506143330 74 193 7.0 15.0 0.00 0.00 0.00 58 1006.8
20260506143116 74 207 9.0 20.0 0.00 0.00 0.00 58 1006.8
20260506142330 73 232 10.0 20.0 0.00 0.00 0.00 58 1006.7
20260506141831 73 234 10.0 21.0 0.00 0.00 0.00 58 1006.8
20260506141330 73 198 10.0 21.0 0.00 0.00 0.00 58 1006.7
20260506140831 73 196 10.0 25.0 0.00 0.00 0.00 59 1006.6
20260506140328 73 211 9.0 25.0 0.00 0.00 0.00 59 1006.6
20260506135829 72 234 9.0 20.0 0.00 0.00 0.00 60 1006.7
20260506135329 72 201 11.0 20.0 0.00 0.00 0.00 60 1006.7
20260506134829 72 174 12.0 22.0 0.00 0.00 0.00 60 1006.7
20260506134328 72 194 12.0 22.0 0.00 0.00 0.00 60 1006.8
20260506133828 72 210 11.0 26.0 0.00 0.00 0.00 61 1006.9
20260506133330 72 196 10.0 26.0 0.00 0.00 0.00 61 1006.9
20260506132833 71 200 10.0 22.0 0.00 0.00 0.00 62 1007.1
20260506132335 71 189 11.0 22.0 0.00 0.00 0.00 64 1007.0
20260506131832 71 225 11.0 21.0 0.00 0.00 0.00 64 1007.2
20260506131330 70 200 9.0 18.0 0.00 0.00 0.00 65 1007.3
20260506130829 69 188 10.0 22.0 0.00 0.00 0.00 65 1007.2
20260506130328 69 242 11.0 22.0 0.00 0.00 0.00 67 1007.2
20260506125829 69 202 10.0 22.0 0.00 0.00 0.00 67 1007.2
20260506125612 69 221 9.0 19.0 0.00 0.00 0.00 67 1007.1
20260506124829 68 219 9.0 18.0 0.00 0.00 0.00 68 1007.1
20260506124329 68 205 8.0 16.0 0.00 0.00 0.00 68 1007.1
20260506123830 68 178 8.0 18.0 0.00 0.00 0.00 68 1007.3
20260506123330 68 232 8.0 18.0 0.00 0.00 0.00 68 1007.2
20260506123057 68 152 8.0 16.0 0.00 0.00 0.00 68 1007.3
20260506122310 68 200 8.0 18.0 0.00 0.00 0.00 68 1007.2
20260506121807 68 193 9.0 20.0 0.00 0.00 0.00 69 1007.3
20260506121307 68 198 9.0 20.0 0.00 0.00 0.00 69 1007.2
20260506120809 68 207 10.0 21.0 0.00 0.00 0.00 69 1007.3
20260506120307 67 190 10.0 21.0 0.00 0.00 0.00 69 1007.5
20260506115807 67 182 11.0 22.0 0.00 0.00 0.00 70 1007.6
20260506115307 67 215 11.0 22.0 0.00 0.00 0.00 70 1007.5
20260506115047 67 186 10.0 20.0 0.00 0.00 0.00 71 1007.6
20260506114304 66 220 10.0 20.0 0.00 0.00 0.00 71 1007.6
20260506113804 66 173 10.0 20.0 0.00 0.00 0.00 72 1007.5
20260506113304 65 188 11.0 20.0 0.00 0.00 0.00 73 1007.5
20260506112803 65 153 10.0 20.0 0.00 0.00 0.00 73 1007.6
20260506112305 65 190 10.0 20.0 0.00 0.00 0.00 74 1007.5
20260506111801 65 215 11.0 25.0 0.00 0.00 0.00 74 1007.6
20260506111303 65 176 11.0 25.0 0.00 0.00 0.00 74 1007.7
20260506110802 65 161 11.0 23.0 0.00 0.00 0.00 75 1007.5
20260506110303 65 185 10.0 23.0 0.00 0.00 0.00 75 1007.4
20260506105801 64 205 9.0 19.0 0.00 0.00 0.00 75 1007.4
20260506105304 64 185 9.0 23.0 0.00 0.00 0.00 76 1007.4
20260506104803 64 164 11.0 27.0 0.00 0.00 0.00 76 1007.4
20260506104302 64 208 11.0 27.0 0.00 0.00 0.00 76 1007.4
20260506103803 64 213 10.0 19.0 0.00 0.00 0.00 76 1007.4
20260506103302 64 185 9.0 19.0 0.00 0.00 0.00 76 1007.5
20260506102802 64 182 8.0 19.0 0.00 0.00 0.00 76 1007.3
20260506102301 64 184 9.0 19.0 0.00 0.00 0.00 76 1007.4
20260506101801 64 188 10.0 19.0 0.00 0.00 0.00 76 1007.3
20260506101301 64 181 10.0 19.0 0.00 0.00 0.00 76 1007.2
20260506100801 64 205 9.0 18.0 0.00 0.00 0.00 76 1007.2
20260506100302 64 192 10.0 21.0 0.00 0.00 0.00 76 1007.3
20260506095802 64 221 10.0 21.0 0.00 0.00 0.00 76 1007.2
20260506095301 65 196 9.0 20.0 0.00 0.00 0.00 76 1007.0
20260506094802 65 164 9.0 17.0 0.00 0.00 0.00 76 1007.1
20260506094302 65 209 10.0 25.0 0.00 0.00 0.00 76 1007.2
20260506093803 65 217 10.0 25.0 0.00 0.00 0.00 76 1007.1
20260506093619 65 200 9.0 19.0 0.00 0.00 0.00 76 1007.1
20260506093322 65 190 9.0 18.0 0.00 0.00 0.00 76 1007.1
20260506092302 65 187 8.0 19.0 0.00 0.00 0.00 75 1007.3
20260506091802 65 194 8.0 18.0 0.00 0.00 0.00 75 1007.3
20260506091302 65 291 9.0 18.0 0.00 0.00 0.00 75 1007.3
20260506090803 65 230 8.0 16.0 0.00 0.00 0.00 75 1007.3
20260506090301 65 199 9.0 18.0 0.00 0.00 0.00 75 1007.4
20260506085801 65 225 10.0 22.0 0.00 0.00 0.00 75 1007.4
20260506085300 65 183 9.0 22.0 0.00 0.00 0.00 75 1007.5
20260506084801 65 185 8.0 19.0 0.00 0.00 0.00 75 1007.5
20260506084302 65 189 8.0 19.0 0.00 0.00 0.00 75 1007.5
20260506083802 65 198 8.0 19.0 0.00 0.00 0.00 75 1007.6
20260506083302 65 204 8.0 19.0 0.00 0.00 0.00 74 1007.6
20260506082801 65 240 8.0 16.0 0.00 0.00 0.00 74 1007.6
20260506082301 66 198 8.0 15.0 0.00 0.00 0.00 74 1007.7
20260506082045 66 207 8.0 17.0 0.00 0.00 0.00 74 1007.7
20260506081307 66 214 8.0 17.0 0.00 0.00 0.00 74 1007.7
20260506080801 66 203 8.0 18.0 0.00 0.00 0.00 74 1007.7
20260506080301 66 204 9.0 20.0 0.00 0.00 0.00 74 1007.6
20260506073300 66 246 8.0 16.0 0.00 0.00 0.00 74 1007.6
20260506072802 66 209 8.0 19.0 0.00 0.00 0.00 73 1007.7
20260506072301 66 186 9.0 19.0 0.00 0.00 0.00 73 1007.8
20260506071801 66 220 8.0 17.0 0.00 0.00 0.00 73 1007.9
20260506071303 66 205 9.0 22.0 0.00 0.00 0.00 73 1007.9
20260506071042 66 236 10.0 22.0 0.00 0.00 0.00 73 1007.8
20260506070540 66 254 9.0 17.0 0.00 0.00 0.00 73 1007.8
20260506062257 67 202 9.0 21.0 0.00 0.00 0.00 70 1007.8
20260506061756 67 194 9.0 21.0 0.00 0.00 0.00 70 1007.8
20260506061257 67 202 7.0 18.0 0.00 0.00 0.00 70 1007.8
20260506061027 67 191 8.0 17.0 0.00 0.00 0.00 69 1007.8
20260506060515 67 198 9.0 19.0 0.00 0.00 0.00 69 1007.8
20260506051229 69 144 10.0 22.0 0.00 0.00 0.00 65 1008.1
20260506050729 69 181 10.0 22.0 0.00 0.00 0.00 64 1008.0
20260506050229 69 190 9.0 18.0 0.00 0.00 0.00 64 1008.0
20260506044728 69 194 10.0 24.0 0.00 0.00 0.00 64 1008.1
20260506044229 69 233 10.0 24.0 0.00 0.00 0.00 64 1008.0
20260506044011 69 202 10.0 20.0 0.00 0.00 0.00 63 1008.0
20260506043230 69 221 10.0 19.0 0.00 0.00 0.00 63 1008.1
20260506042730 69 185 10.0 19.0 0.00 0.00 0.00 63 1008.1
20260506042229 69 208 10.0 20.0 0.00 0.00 0.00 63 1008.1
20260506041728 70 176 11.0 22.0 0.00 0.00 0.00 63 1008.0
20260506041229 70 191 11.0 22.0 0.00 0.00 0.00 62 1008.0
20260506040729 70 160 11.0 28.0 0.00 0.00 0.00 62 1008.0
20260506040517 70 221 11.0 28.0 0.00 0.00 0.00 62 1008.0
20260506035729 70 224 9.0 24.0 0.00 0.00 0.00 61 1008.0
20260506035229 70 253 9.0 17.0 0.00 0.00 0.00 61 1008.0
20260506034729 70 203 9.0 20.0 0.00 0.00 0.00 61 1008.0
20260506034229 70 205 10.0 20.0 0.00 0.00 0.00 61 1008.0
20260506033729 70 180 12.0 26.0 0.00 0.00 0.00 60 1008.0
20260506033229 70 217 13.0 27.0 0.00 0.00 0.00 60 1008.0
20260506033017 70 140 12.0 27.0 0.00 0.00 0.00 60 1007.9
20260506032514 70 191 10.0 24.0 0.00 0.00 0.00 60 1007.9
20260506031730 71 237 12.0 24.0 0.00 0.00 0.00 60 1007.8
20260506031229 71 204 13.0 24.0 0.00 0.00 0.00 59 1007.8
20260506031019 71 236 12.0 23.0 0.00 0.00 0.00 59 1007.9
20260506030229 71 175 11.0 23.0 0.00 0.00 0.00 59 1007.9
20260506025730 71 191 11.0 25.0 0.00 0.00 0.00 58 1007.9
20260506025229 71 178 12.0 29.0 0.00 0.00 0.00 58 1007.8
20260506024729 71 130 12.0 29.0 0.00 0.00 0.00 58 1007.9
20260506024229 71 244 11.0 22.0 0.00 0.00 0.00 57 1007.9
20260506024020 71 185 9.0 21.0 0.00 0.00 0.00 57 1007.9
20260506023230 71 222 9.0 20.0 0.00 0.00 0.00 57 1008.0
20260506022729 71 230 11.0 21.0 0.00 0.00 0.00 56 1007.9
20260506022229 71 198 12.0 25.0 0.00 0.00 0.00 56 1008.0
20260506021728 71 200 12.0 25.0 0.00 0.00 0.00 56 1007.9
20260506021551 71 168 13.0 25.0 0.00 0.00 0.00 55 1007.8
20260506021253 71 187 12.0 21.0 0.00 0.00 0.00 55 1007.8
20260506020230 71 203 12.0 25.0 0.00 0.00 0.00 55 1007.8
20260506015730 71 218 10.0 22.0 0.00 0.00 0.00 55 1007.7
20260506015230 71 225 9.0 24.0 0.00 0.00 0.00 55 1007.8
20260506014728 71 195 11.0 24.0 0.00 0.00 0.00 55 1007.8
20260506014229 71 165 11.0 22.0 0.00 0.00 0.00 55 1007.7
20260506013729 71 185 12.0 27.0 0.00 0.00 0.00 54 1007.5
20260506013516 71 154 13.0 27.0 0.00 0.00 0.00 54 1007.6
20260506012802 72 194 12.0 26.0 0.00 0.00 0.00 54 1007.5
20260506012750 71 193 12.0 25.0 0.00 0.00 0.00 54 1007.6
20260506012016 72 215 13.0 26.0 0.00 0.00 0.00 54 1007.4
20260506011229 72 184 13.0 31.0 0.00 0.00 0.00 54 1007.3
20260506010730 72 193 13.0 31.0 0.00 0.00 0.00 53 1007.3
20260506010230 72 240 10.0 19.0 0.00 0.00 0.00 53 1007.3
20260506005730 73 194 9.0 22.0 0.00 0.00 0.00 53 1007.3
20260506005515 73 215 10.0 22.0 0.00 0.00 0.00 52 1007.2
20260506004729 73 186 10.0 20.0 0.00 0.00 0.00 52 1007.3
20260506004229 73 198 9.0 21.0 0.00 0.00 0.00 52 1007.2
20260506003729 74 189 10.0 21.0 0.00 0.00 0.00 51 1007.1
20260506003517 74 183 10.0 24.0 0.00 0.00 0.00 50 1007.1
20260506002728 74 202 10.0 24.0 0.00 0.00 0.00 50 1007.1
20260506002230 74 198 11.0 22.0 0.00 0.00 0.00 50 1007.2
20260506002019 75 196 10.0 22.0 0.00 0.00 0.00 49 1007.1
20260506001228 75 182 8.0 19.0 0.00 0.00 0.00 49 1007.1
20260506000729 75 215 8.0 19.0 0.00 0.00 0.00 48 1007.0
20260506000516 76 182 8.0 23.0 0.00 0.00 0.00 47 1006.8
20260505235729 76 190 8.0 23.0 0.00 0.00 0.00 46 1006.7
20260505235229 77 197 8.0 16.0 0.00 0.00 0.00 45 1006.7
20260505234734 78 211 8.0 20.0 0.00 0.00 0.00 44 1006.7
20260505234229 79 225 10.0 21.0 0.00 0.00 0.00 42 1006.6
20260505233731 80 185 11.0 21.0 0.00 0.00 0.00 39 1006.6
20260505233231 80 191 10.0 18.0 0.00 0.00 0.00 38 1006.5
20260505232731 80 184 11.0 20.0 0.00 0.00 0.00 38 1006.4
20260505232230 80 238 10.0 20.0 0.00 0.00 0.00 38 1006.3
20260505231729 80 219 10.0 19.0 0.00 0.00 0.00 38 1006.3
20260505231229 80 208 8.0 19.0 0.00 0.00 0.00 38 1006.2
20260505230731 80 182 8.0 17.0 0.00 0.00 0.00 38 1006.2
20260505230229 81 190 10.0 19.0 0.00 0.00 0.00 38 1006.1
20260505225730 81 214 11.0 22.0 0.00 0.00 0.00 38 1006.2
20260505225229 81 192 9.0 22.0 0.00 0.00 0.00 37 1006.1
20260505224728 81 197 8.0 19.0 0.00 0.00 0.00 38 1006.0
20260505224510 82 220 10.0 25.0 0.00 0.00 0.00 37 1006.1
20260505224012 82 153 10.0 25.0 0.00 0.00 0.00 37 1006.0
20260505223229 82 206 8.0 19.0 0.00 0.00 0.00 37 1005.9
20260505222729 83 182 8.0 20.0 0.00 0.00 0.00 37 1005.9
20260505222230 83 177 9.0 20.0 0.00 0.00 0.00 35 1005.9
20260505222012 83 194 11.0 21.0 0.00 0.00 0.00 35 1005.7
20260505221228 84 195 12.0 25.0 0.00 0.00 0.00 35 1005.6
20260505220730 84 215 15.0 29.0 0.00 0.00 0.00 31 1005.6
20260505220230 84 202 16.0 29.0 0.00 0.00 0.00 30 1005.8
20260505215730 85 237 12.0 26.0 0.00 0.00 0.00 30 1005.6
20260505215230 85 211 10.0 20.0 0.00 0.00 0.00 29 1005.3
20260505214731 85 199 12.0 24.0 0.00 0.00 0.00 30 1005.4
20260505214231 85 241 12.0 24.0 0.00 0.00 0.00 30 1005.4
20260505214014 85 196 13.0 25.0 0.00 0.00 0.00 30 1005.6
20260505213230 85 190 13.0 25.0 0.00 0.00 0.00 30 1005.5
20260505212730 85 213 13.0 26.0 0.00 0.00 0.00 29 1005.4
20260505212231 85 221 13.0 27.0 0.00 0.00 0.00 28 1005.3
20260505211730 85 211 14.0 27.0 0.00 0.00 0.00 28 1005.3
20260505211515 85 188 13.0 28.0 0.00 0.00 0.00 28 1005.2
20260505210730 86 238 13.0 31.0 0.00 0.00 0.00 28 1005.2
20260505210230 86 198 13.0 31.0 0.00 0.00 0.00 28 1005.1
20260505205730 86 222 11.0 22.0 0.00 0.00 0.00 29 1005.3
20260505205231 86 200 9.0 20.0 0.00 0.00 0.00 28 1005.0
20260505205012 86 185 10.0 26.0 0.00 0.00 0.00 29 1005.1
20260505204230 86 214 12.0 26.0 0.00 0.00 0.00 27 1005.3
20260505203731 86 229 13.0 22.0 0.00 0.00 0.00 27 1005.2
20260505203231 86 201 14.0 27.0 0.00 0.00 0.00 28 1005.2
20260505202731 86 260 14.0 27.0 0.00 0.00 0.00 28 1005.2
20260505202228 86 219 13.0 21.0 0.00 0.00 0.00 28 1005.2
20260505201730 86 238 12.0 22.0 0.00 0.00 0.00 28 1005.3
20260505201229 86 200 13.0 26.0 0.00 0.00 0.00 26 1005.2
20260505200728 86 236 12.0 26.0 0.00 0.00 0.00 27 1005.2
20260505200230 86 217 13.0 28.0 0.00 0.00 0.00 27 1005.2
20260505195730 87 205 15.0 31.0 0.00 0.00 0.00 26 1005.3
20260505195230 87 214 13.0 31.0 0.00 0.00 0.00 25 1005.4
20260505194730 87 206 11.0 22.0 0.00 0.00 0.00 27 1005.3
20260505194229 87 218 12.0 25.0 0.00 0.00 0.00 26 1005.3
20260505193730 87 178 14.0 30.0 0.00 0.00 0.00 27 1005.4
20260505193228 87 228 14.0 30.0 0.00 0.00 0.00 26 1005.6
20260505192729 87 200 15.0 29.0 0.00 0.00 0.00 25 1005.5
20260505192229 87 184 14.0 27.0 0.00 0.00 0.00 26 1005.6
20260505191730 87 193 14.0 22.0 0.00 0.00 0.00 27 1005.7
20260505191230 87 224 12.0 24.0 0.00 0.00 0.00 28 1006.0
20260505190729 87 221 11.0 24.0 0.00 0.00 0.00 28 1006.1
20260505190305 87 213 11.0 19.0 0.00 0.00 0.00 30 1006.1
20260505190250 87 242 11.0 21.0 0.00 0.00 0.00 29 1006.2
20260505185230 87 188 11.0 20.0 0.00 0.00 0.00 30 1006.3
20260505184734 87 197 11.0 20.0 0.00 0.00 0.00 31 1006.2
20260505184229 87 204 10.0 21.0 0.00 0.00 0.00 31 1006.3
20260505183729 87 246 9.0 21.0 0.00 0.00 0.00 31 1006.5
20260505183229 86 216 11.0 20.0 0.00 0.00 0.00 33 1006.5
20260505183009 86 223 12.0 21.0 0.00 0.00 0.00 32 1006.5